Location: ??
(34.9170°N, 135.5016°E)
Time: 12:02:35
(UTC+00:00)

Intercosmos 24 - Pass Details

Date: 29 October 2020
Orbit: 498 x 2379 km, 82.6° (Epoch: 27 November)

Event Time Altitude Azimuth Distance (km) Brightness Sun altitude
Exits shadow 19:39:24 44° 342° (NNW) 698 4.1 -20.5°
Maximum altitude 19:40:25 78° 264° (W) 518 3.4 -20.3°
Drops below altitude 10° 19:44:12 10° 178° (S) 1,824 6.5 -19.5°
Sets 19:46:31 0° 177° (S) 2,849 7.6 -19.1°
